sat.trackr.live / text

‹ back to catalog

STARLINK-32860

NORAD 62856 · 2025-022C

PAYLOAD ACTIVE UNKNOWN

§ Identity

Operator
Country
US
Launch date
2025-02-01
Launch site
AFWTR
Launch vehicle
Mass (kg)
RCS (m²)

Purposes: comms

External: N2YO · Heavens-Above · Gunter

§ Orbital elements

Epoch: 2026-05-25T04:00:03.998880Z

Period
93.90 min
Inclination
53.1590°
Eccentricity
0.0001165
Mean motion
15.33547974 rev/d
Perigee alt
464.4 km
Apogee alt
466.0 km
Semi-major
6,843.4 km
B*
-4.8173e-4
RAAN
134.6287°
Arg perigee
83.8766°
Mean anomaly
348.7414°
Rev number
591

§ Raw data

STARLINK-328601 62856U 25022C   26145.16671295 -.00016181  00000+0 -48173-3 0  99972 62856  53.1590 134.6287 0001165  83.8766 348.7414 15.33547974  5918

JSON: /api/v1/satellites/62856 · /tle

For live sub-satellite position, see the globe view (requires WebGL).

§ Visibility from observer

Set your observer location to see the next 7 days of passes ≥ 10°. The values pass through the URL so the page stays shareable.

No JS? Fill the form by hand. The geolocation button needs JavaScript.